Naples, FL

2:12 PM EDT on June 25, 2017 (GMT -0400)
Naples Municipal

Weather History for KAPF - May, 2013

Change the Weather History Date:

Sunday, May 5, 2013

  Actual Average Record
Temperature  
Mean Temperature 74 °F 76 °F  
Max Temperature 78 °F 87 °F 92 °F (1989)
Min Temperature 69 °F 66 °F 51 °F (2001)
Degree Days  
Heating Degree Days 0 0  
Month to date heating degree days 0 0  
Since 1 July heating degree days 182 260  
Cooling Degree Days 9 11  
Month to date cooling degree days 44 55  
Year to date cooling degree days 781 675  
Growing Degree Days 24 (Base 50)    
Moisture  
Dew Point 60 °F    
Average Humidity 63    
Maximum Humidity 79    
Minimum Humidity 46    
Precipitation  
Precipitation 0.00 in 0.08 in 2.26 in (1978)
Month to date precipitation 1.40 0.36  
Year to date precipitation 8.27 9.05  
Snow  
Snow 0.00 in - - ()
Month to date snowfall 0.0  
Since 1 July snowfall 0.0  
Snow Depth 0.00 in    
Sea Level Pressure  
Sea Level Pressure 29.87 in    
Wind  
Wind Speed 12 mph (NW)    
Max Wind Speed 18 mph    
Max Gust Speed 25 mph    
Visibility 10 miles    
Events      
T = Trace of Precipitation, MM = Missing Value Source: NWS Daily Summary

Daily Weather History Graph

Daily Weather History Graph

Search for Another Location

Airport or City:

Trip Planner

Search our weather history database for the weather conditions in past years. The results will help you decide how hot, cold, wet, or windy it might be!

Date:

Astronomy

May. 05, 2013 Rise Set
Actual Time 6:46 AM EDT 8:01 PM EDT
Civil Twilight 6:22 AM EDT 8:25 PM EDT
Nautical Twilight 5:53 AM EDT 8:54 PM EDT
Astronomical Twilight 5:23 AM EDT 9:25 PM EDT
Moon 3:52 AM EDT (5/5) 4:20 PM EDT (5/5)
Length of Visible Light 14h 03m
Length of Day
13h 14m
Waning Crescent, 18% of the Moon is Illuminated
May 5
Waning Crescent
May 9
New
May 18
First Quarter
May 25
Full
May 31
Last Quarter

Hourly Weather History & Observations

Time (EDT) Temp. Dew Point Humidity Pressure Visibility Wind Dir Wind Speed Gust Speed Precip Events Conditions
12:53 AM 72.0 °F 64.9 °F 78% 29.83 in 10.0 mi WNW 13.8 mph 19.6 mph N/A   Mostly Cloudy
1:21 AM 71.6 °F 66.2 °F 83% 29.83 in 10.0 mi WNW 15.0 mph - N/A   Mostly Cloudy
1:49 AM 71.6 °F 64.4 °F 78% 29.82 in 10.0 mi WNW 15.0 mph - N/A   Scattered Clouds
1:53 AM 72.0 °F 64.9 °F 78% 29.81 in 10.0 mi WNW 12.7 mph - N/A   Scattered Clouds
2:30 AM 71.6 °F 64.4 °F 78% 29.81 in 10.0 mi WNW 13.8 mph - N/A   Mostly Cloudy
2:40 AM 71.6 °F 64.4 °F 78% 29.81 in 10.0 mi WNW 12.7 mph 20.7 mph N/A   Scattered Clouds
2:50 AM 71.6 °F 64.4 °F 78% 29.81 in 10.0 mi WNW 13.8 mph 23.0 mph N/A   Mostly Cloudy
2:53 AM 72.0 °F 64.0 °F 76% 29.81 in 10.0 mi WNW 12.7 mph - N/A   Mostly Cloudy
3:40 AM 71.6 °F 64.4 °F 78% 29.80 in 10.0 mi NW 13.8 mph 20.7 mph N/A   Mostly Cloudy
3:50 AM 71.6 °F 62.6 °F 73% 29.81 in 10.0 mi WNW 13.8 mph 20.7 mph N/A   Mostly Cloudy
3:53 AM 71.1 °F 63.0 °F 75% 29.81 in 10.0 mi WNW 15.0 mph 20.7 mph N/A   Mostly Cloudy
4:00 AM 71.6 °F 62.6 °F 73% 29.81 in 10.0 mi WNW 13.8 mph - N/A   Scattered Clouds
4:53 AM 71.1 °F 62.1 °F 73% 29.81 in 10.0 mi WNW 15.0 mph 21.9 mph N/A   Mostly Cloudy
5:53 AM 70.0 °F 61.0 °F 73% 29.82 in 10.0 mi WNW 12.7 mph 19.6 mph N/A   Mostly Cloudy
6:53 AM 70.0 °F 60.1 °F 71% 29.85 in 10.0 mi WNW 12.7 mph - N/A   Overcast
7:53 AM 71.1 °F 61.0 °F 70% 29.88 in 10.0 mi WNW 12.7 mph - N/A   Overcast
8:18 AM 71.6 °F 59.0 °F 64% 29.89 in 10.0 mi WNW 11.5 mph 16.1 mph N/A   Overcast
8:27 AM 71.6 °F 59.0 °F 64% 29.89 in 10.0 mi NW 10.4 mph - N/A   Overcast
8:53 AM 73.9 °F 60.1 °F 62% 29.89 in 10.0 mi NNW 9.2 mph 17.3 mph N/A   Mostly Cloudy
9:53 AM 72.0 °F 57.0 °F 59% 29.91 in 10.0 mi NNW 10.4 mph 21.9 mph N/A   Partly Cloudy
10:53 AM 73.9 °F 57.0 °F 55% 29.92 in 10.0 mi NW 11.5 mph 20.7 mph N/A   Partly Cloudy
11:53 AM 73.9 °F 57.9 °F 57% 29.93 in 10.0 mi NW 8.1 mph 16.1 mph N/A   Scattered Clouds
12:53 PM 75.0 °F 55.9 °F 51% 29.92 in 10.0 mi NNW 13.8 mph 23.0 mph N/A   Partly Cloudy
2:53 PM 75.9 °F 55.9 °F 50% 29.90 in 10.0 mi NW 15.0 mph 24.2 mph N/A   Clear
3:53 PM 77.0 °F 55.9 °F 48% 29.89 in 10.0 mi WNW 15.0 mph 21.9 mph N/A   Clear
4:53 PM 77.0 °F 55.9 °F 48% 29.89 in 10.0 mi NW 17.3 mph 24.2 mph N/A   Clear
5:53 PM 75.9 °F 55.9 °F 50% 29.90 in 10.0 mi WNW 16.1 mph 24.2 mph N/A   Clear
6:53 PM 73.9 °F 55.0 °F 52% 29.91 in 10.0 mi WNW 13.8 mph 21.9 mph N/A   Clear
7:53 PM 72.0 °F 55.9 °F 57% 29.93 in 10.0 mi NW 12.7 mph 24.2 mph N/A   Clear
8:53 PM 72.0 °F 55.0 °F 55% 29.95 in 10.0 mi NW 11.5 mph 18.4 mph N/A   Clear
9:53 PM 71.1 °F 55.0 °F 57% 29.96 in 10.0 mi NNW 9.2 mph 16.1 mph N/A   Clear
10:53 PM 70.0 °F 55.0 °F 59% 29.97 in 10.0 mi NNW 5.8 mph - N/A   Clear
11:53 PM 70.0 °F 55.0 °F 59% 29.98 in 10.0 mi NW 6.9 mph - N/A   Clear